sat.trackr.live / text

‹ back to catalog

STARLINK-34612

NORAD 64773 · 2025-147U

PAYLOAD ACTIVE UNKNOWN

§ Identity

Operator
Country
US
Launch date
2025-07-08
Launch site
AFETR
Launch vehicle
Mass (kg)
RCS (m²)

Purposes: comms

External: N2YO · Heavens-Above · Gunter

§ Orbital elements

Epoch: 2026-09-20T14:10:25.324032Z

Period
93.85 min
Inclination
53.1563°
Eccentricity
0.0001402
Mean motion
15.34397122 rev/d
Perigee alt
461.8 km
Apogee alt
463.7 km
Semi-major
6,840.8 km
B*
6.1515e-4
RAAN
53.0782°
Arg perigee
81.9686°
Mean anomaly
278.1476°
Rev number
6,865

§ Raw data

STARLINK-346121 64773U 25147U   26263.59057088  .00020463  00000+0  61515-3 0  99922 64773  53.1563  53.0782 0001402  81.9686 278.1476 15.34397122 68659

JSON: /api/v1/satellites/64773 · /tle

For live sub-satellite position, see the globe view (requires WebGL).

§ Visibility from observer

Set your observer location to see the next 7 days of passes ≥ 10°. The values pass through the URL so the page stays shareable.

No JS? Fill the form by hand. The geolocation button needs JavaScript.